Weather History for KBML - December, 2006

Change the Weather History Date:

Thursday, December 7, 2006

  Actual Average Record
Temperature  
Mean Temperature 30 °F -  
Max Temperature 39 °F 31 °F 66 °F (1998)
Min Temperature 21 °F 14 °F -9 °F (2014)
Degree Days  
Heating Degree Days 35    
Moisture  
Dew Point 28 °F    
Average Humidity 88    
Maximum Humidity 100    
Minimum Humidity 70    
Precipitation  
Precipitation 0.20 in - - ()
Sea Level Pressure  
Sea Level Pressure 29.84 in    
Wind  
Wind Speed 4 mph (NW)    
Max Wind Speed 16 mph    
Max Gust Speed 24 mph    
Visibility 3 miles    
Events Fog , Rain , Snow    
Averages and records for this station are not official NWS values.
T = Trace of Precipitation, MM = Missing Value Source: NWS Daily Summary

Daily Weather History Graph

Daily Weather History Graph

Search for Another Location

Airport or City:

Trip Planner

Search our weather history database for the weather conditions in past years. The results will help you decide how hot, cold, wet, or windy it might be!

Date:

Astronomy

Dec. 07, 2006 Rise Set
Actual Time 7:07 AM EST 4:04 PM EST
Civil Twilight 6:34 AM EST 4:37 PM EST
Nautical Twilight 5:57 AM EST 5:14 PM EST
Astronomical Twilight 5:22 AM EST 5:49 PM EST
Moon 6:30 PM EST (12/7) 10:00 AM EST (12/7)
Length of Visible Light 10h 03m
Length of Day
8h 57m
Waning Gibbous, 91% of the Moon is Illuminated
Dec 7
Waning Gibbous
Dec 12
Last Quarter
Dec 20
New
Dec 27
First Quarter
Jan 3
Full

Hourly Weather History & Observations

Time (EST) Temp. Windchill Dew Point Humidity Pressure Visibility Wind Dir Wind Speed Gust Speed Precip Events Conditions
12:52 AM 37.0 °F 30.4 °F 28.9 °F 73% 29.97 in 10.0 mi South 9.2 mph - 0.00 in Rain Light Rain
1:01 AM 37.4 °F 30.3 °F 28.4 °F 70% 29.92 in 10.0 mi SSW 10.4 mph - 0.00 in Rain Light Rain
3:39 AM 33.8 °F - 30.2 °F 87% 29.87 in 3.0 mi Calm Calm - 0.01 in Snow Light Snow
3:47 AM 33.8 °F - 30.2 °F 87% 29.87 in 2.0 mi Calm Calm - 0.01 in Snow Light Snow
3:52 AM 33.1 °F - 30.9 °F 92% 29.91 in 2.5 mi Calm Calm - 0.01 in Snow Light Snow
4:12 AM 33.8 °F - 32.0 °F 93% 29.86 in 1.8 mi Calm Calm - 0.01 in Snow Light Snow
4:25 AM 33.8 °F - 32.0 °F 93% 29.86 in 2.5 mi Calm Calm - 0.01 in Snow Light Snow
4:52 AM 33.1 °F - 30.9 °F 92% 29.90 in 1.8 mi Calm Calm - 0.03 in Snow Light Snow
5:26 AM 33.8 °F 29.6 °F 30.2 °F 87% 29.85 in 2.0 mi South 4.6 mph - 0.01 in Snow Light Snow
5:52 AM 33.1 °F - 30.9 °F 92% 29.89 in 3.0 mi Calm Calm - 0.02 in Rain Light Rain
6:07 AM 33.8 °F - 30.2 °F 87% 29.85 in 2.0 mi Calm Calm - 0.01 in Snow Light Snow
6:15 AM 33.8 °F - 30.2 °F 87% 29.85 in 1.8 mi Calm Calm - 0.01 in Snow Light Snow
6:21 AM 33.8 °F - 30.2 °F 87% 29.85 in 2.0 mi Calm Calm - 0.01 in Snow Light Snow
6:24 AM 33.8 °F - 32.0 °F 93% 29.85 in 2.0 mi Calm Calm - 0.01 in Snow Light Snow
6:42 AM 33.8 °F - 32.0 °F 93% 29.85 in 2.0 mi Calm Calm - 0.02 in Snow Light Snow
6:52 AM 33.1 °F - 32.0 °F 96% 29.89 in 2.5 mi Calm Calm - 0.02 in Snow Light Snow
6:58 AM 33.8 °F 30.8 °F 32.0 °F 93% 29.85 in 3.0 mi South 3.5 mph - 0.00 in Snow Light Snow
7:09 AM 33.8 °F - 30.2 °F 87% 29.85 in 2.5 mi Calm Calm - 0.00 in   Overcast
7:15 AM 33.8 °F - 32.0 °F 93% 29.85 in 3.0 mi Calm Calm - 0.00 in   Overcast
7:22 AM 33.8 °F 30.8 °F 30.2 °F 87% 29.84 in 2.5 mi South 3.5 mph - 0.00 in   Overcast
7:41 AM 33.8 °F 29.6 °F 30.2 °F 87% 29.85 in 1.8 mi South 4.6 mph - 0.00 in Rain Light Rain
7:52 AM 33.1 °F 28.7 °F 30.9 °F 92% 29.88 in 1.8 mi South 4.6 mph - 0.00 in   Overcast
8:03 AM 33.8 °F 30.8 °F 32.0 °F 93% 29.84 in 2.0 mi South 3.5 mph - 0.00 in Rain Light Rain
8:13 AM 33.8 °F 29.6 °F 32.0 °F 93% 29.84 in 2.5 mi South 4.6 mph - 0.01 in Rain Light Rain
8:30 AM 33.8 °F 29.6 °F 32.0 °F 93% 29.85 in 3.0 mi South 4.6 mph - 0.01 in   Overcast
8:42 AM 33.8 °F - 32.0 °F 93% 29.85 in 2.5 mi Calm Calm - 0.01 in   Overcast
8:52 AM 33.1 °F 30.0 °F 32.0 °F 96% 29.89 in 2.5 mi SW 3.5 mph - 0.01 in   Overcast
9:52 AM 34.0 °F 31.0 °F 32.0 °F 92% 29.88 in 2.5 mi South 3.5 mph - N/A   Overcast
10:02 AM 33.8 °F - 33.8 °F 100% 29.84 in 3.0 mi Calm Calm - N/A   Overcast
10:22 AM 35.6 °F - 33.8 °F 93% 29.84 in 5.0 mi Calm Calm - N/A   Mostly Cloudy
10:52 AM 39.0 °F - 33.1 °F 79% 29.85 in 10.0 mi Calm Calm - N/A   Overcast
12:52 PM 37.0 °F - 33.1 °F 86% 29.82 in 8.0 mi Calm Calm - 0.00 in   Overcast
1:52 PM 37.0 °F - 34.0 °F 89% 29.81 in 9.0 mi Calm Calm - N/A   Overcast
2:52 PM 36.0 °F - 33.1 °F 89% 29.82 in 7.0 mi Calm Calm - N/A   Overcast
3:52 PM 35.1 °F 32.2 °F 33.1 °F 92% 29.83 in 3.0 mi NNW 3.5 mph - N/A   Overcast
4:01 PM 35.6 °F 32.8 °F 33.8 °F 93% 29.79 in 2.5 mi North 3.5 mph - N/A   Overcast
4:19 PM 33.8 °F - 33.8 °F 100% 29.78 in 4.0 mi Calm Calm - N/A   Overcast
4:52 PM 34.0 °F - 32.0 °F 92% 29.82 in 3.0 mi Calm Calm - N/A   Overcast
5:15 PM 33.8 °F - 30.2 °F 87% 29.78 in 2.5 mi Calm Calm - N/A   Overcast
5:24 PM 33.8 °F - 32.0 °F 93% 29.78 in 2.5 mi Calm Calm - N/A   Overcast
5:44 PM 33.8 °F 25.8 °F 30.2 °F 87% 29.79 in 5.0 mi NNW 10.4 mph - N/A   Overcast
5:52 PM 33.1 °F 22.6 °F 30.0 °F 89% 29.84 in 3.0 mi NNW 16.1 mph 20.7 mph 0.00 in Snow Light Snow
5:56 PM 33.8 °F 24.3 °F 30.2 °F 87% 29.80 in 1.8 mi North 13.8 mph 20.7 mph 0.00 in Snow Light Snow
6:07 PM 32.0 °F 24.2 °F 30.2 °F 93% 29.80 in 1.2 mi NNW 9.2 mph - 0.00 in Snow Light Snow
6:22 PM 32.0 °F 24.8 °F 28.4 °F 87% 29.81 in 1.2 mi NNW 8.1 mph - 0.01 in Snow Light Snow
6:35 PM 30.2 °F 20.2 °F 28.4 °F 93% 29.81 in 1.0 mi North 12.7 mph - 0.01 in Snow Light Snow
6:40 PM 30.2 °F 20.8 °F 28.4 °F 93% 29.82 in 0.8 mi North 11.5 mph - 0.01 in Snow Light Snow
6:52 PM 30.9 °F 22.8 °F 28.0 °F 89% 29.86 in 0.5 mi NNW 9.2 mph - 0.02 in Fog , Snow Snow
7:25 PM 30.2 °F 26.7 °F 28.4 °F 93% 29.82 in 0.8 mi Variable 3.5 mph - 0.04 in Snow Light Snow
7:28 PM 30.2 °F 26.7 °F 28.4 °F 93% 29.82 in 0.8 mi NW 3.5 mph - 0.04 in Snow Light Snow
7:35 PM 30.2 °F 25.4 °F 28.4 °F 93% 29.82 in 1.0 mi NW 4.6 mph - 0.04 in Snow Light Snow
7:52 PM 30.0 °F 25.2 °F 28.0 °F 92% 29.86 in 0.8 mi NNW 4.6 mph - 0.06 in Snow Light Snow
8:11 PM 30.2 °F 22.6 °F 28.4 °F 93% 29.82 in 1.0 mi NNW 8.1 mph - 0.01 in Snow Light Snow
8:25 PM 28.4 °F 20.4 °F 26.6 °F 93% 29.83 in 0.8 mi NNW 8.1 mph - 0.02 in Snow Light Snow
8:33 PM 28.4 °F 20.4 °F 26.6 °F 93% 29.82 in 1.0 mi NNW 8.1 mph - 0.02 in Snow Light Snow
8:52 PM 28.0 °F 18.6 °F 25.0 °F 88% 29.87 in 1.2 mi NNW 10.4 mph 18.4 mph 0.03 in Snow Light Snow
9:11 PM 28.4 °F 19.7 °F 23.0 °F 80% 29.82 in 1.8 mi NNW 9.2 mph 17.3 mph 0.00 in Snow Light Snow
9:15 PM 28.4 °F 20.4 °F 23.0 °F 80% 29.82 in 2.0 mi NNW 8.1 mph - 0.00 in Snow Light Snow
9:28 PM 26.6 °F 16.2 °F 21.2 °F 80% 29.82 in 1.2 mi NNW 11.5 mph 24.2 mph 0.00 in Snow Light Snow
9:38 PM 26.6 °F 17.5 °F 21.2 °F 80% 29.82 in 2.0 mi NNW 9.2 mph 19.6 mph 0.00 in Snow Light Snow
9:49 PM 26.6 °F 20.0 °F 21.2 °F 80% 29.83 in 3.0 mi NW 5.8 mph - 0.00 in Snow Light Snow
9:52 PM 26.1 °F 16.8 °F 21.0 °F 81% 29.88 in 3.0 mi NW 9.2 mph - 0.00 in Snow Light Snow
10:02 PM 26.6 °F 20.0 °F 19.4 °F 74% 29.83 in 3.0 mi Variable 5.8 mph - 0.00 in Snow Light Snow
10:18 PM 24.8 °F 13.4 °F 19.4 °F 80% 29.83 in 2.0 mi NW 12.7 mph 19.6 mph 0.00 in Snow Light Snow
10:33 PM 24.8 °F 16.1 °F 17.6 °F 74% 29.83 in 5.0 mi NW 8.1 mph 17.3 mph 0.00 in Snow Light Snow
10:52 PM 24.1 °F 16.0 °F 16.0 °F 71% 29.88 in 5.0 mi NW 6.9 mph 17.3 mph 0.00 in Snow Light Snow
11:33 PM 21.2 °F 10.9 °F 15.8 °F 80% 29.84 in 3.0 mi NNW 9.2 mph 19.6 mph 0.00 in Snow Light Snow
11:38 PM 21.2 °F 9.5 °F 15.8 °F 80% 29.84 in 2.0 mi NW 11.5 mph 19.6 mph 0.00 in Snow Light Snow
11:43 PM 21.2 °F 10.1 °F 15.8 °F 80% 29.84 in 1.2 mi NW 10.4 mph 19.6 mph 0.00 in Snow Light Snow
11:52 PM 21.0 °F 10.6 °F 16.0 °F 81% 29.89 in 1.0 mi NW 9.2 mph 17.3 mph 0.00 in Snow Light Snow